| time (UTC) | temp F | wind direction | speed MPH | gust MPH | rain 1hr in | rain 24hr in | rain mn in | humidity % | barometer mb |
| 20260503010038 | 59 | 0 | 0.0 | 0.0 | 0.00 | 0.06 | 0.02 | 55 | 1017.0 |
| 20260503004537 | 60 | 0 | 0.0 | 0.0 | 0.00 | 0.06 | 0.02 | 54 | 1016.8 |
| 20260503003034 | 62 | 0 | 0.0 | 1.0 | 0.00 | 0.06 | 0.02 | 48 | 1016.6 |
| 20260503001546 | 63 | 0 | 0.0 | 3.0 | 0.00 | 0.06 | 0.02 | 49 | 1016.5 |
| 20260503000038 | 63 | 0 | 0.0 | 3.0 | 0.00 | 0.06 | 0.02 | 47 | 1016.3 |
| 20260502234541 | 64 | 0 | 0.0 | 2.0 | 0.00 | 0.06 | 0.02 | 44 | 1016.1 |
| 20260502233040 | 65 | 104 | 0.0 | 1.0 | 0.00 | 0.06 | 0.02 | 45 | 1015.9 |
| 20260502231536 | 65 | 0 | 0.0 | 4.0 | 0.00 | 0.06 | 0.02 | 43 | 1015.8 |
| 20260502230037 | 66 | 101 | 1.0 | 8.0 | 0.00 | 0.06 | 0.02 | 42 | 1015.9 |
| 20260502224534 | 66 | 146 | 1.0 | 5.0 | 0.00 | 0.06 | 0.02 | 43 | 1015.9 |
| 20260502223042 | 66 | 179 | 1.0 | 8.0 | 0.00 | 0.06 | 0.02 | 42 | 1015.9 |
| 20260502221542 | 67 | 144 | 0.0 | 6.0 | 0.00 | 0.06 | 0.02 | 42 | 1015.8 |
| 20260502220035 | 67 | 107 | 0.0 | 8.0 | 0.00 | 0.06 | 0.02 | 42 | 1015.7 |
| 20260502214534 | 67 | 0 | 0.0 | 4.0 | 0.00 | 0.06 | 0.02 | 43 | 1015.6 |
| 20260502213036 | 67 | 0 | 0.0 | 5.0 | 0.00 | 0.06 | 0.02 | 42 | 1015.5 |
| 20260502211536 | 68 | 259 | 1.0 | 9.0 | 0.00 | 0.06 | 0.02 | 39 | 1015.4 |
| 20260502210033 | 68 | 120 | 1.0 | 6.0 | 0.00 | 0.06 | 0.02 | 41 | 1015.7 |
| 20260502204533 | 68 | 265 | 0.0 | 6.0 | 0.00 | 0.06 | 0.02 | 39 | 1015.8 |
| 20260502203038 | 69 | 162 | 1.0 | 6.0 | 0.00 | 0.06 | 0.02 | 37 | 1015.8 |
| 20260502201546 | 69 | 154 | 1.0 | 6.0 | 0.00 | 0.06 | 0.02 | 36 | 1016.0 |
| 20260502200038 | 70 | 94 | 1.0 | 9.0 | 0.00 | 0.06 | 0.02 | 37 | 1015.8 |
| 20260502194535 | 71 | 126 | 1.0 | 6.0 | 0.00 | 0.06 | 0.02 | 38 | 1015.8 |
| 20260502193037 | 71 | 162 | 2.0 | 6.0 | 0.00 | 0.06 | 0.02 | 38 | 1015.8 |
| 20260502191550 | 70 | 113 | 1.0 | 7.0 | 0.00 | 0.06 | 0.02 | 40 | 1015.9 |
| 20260502190041 | 70 | 167 | 1.0 | 7.0 | 0.00 | 0.06 | 0.02 | 40 | 1016.2 |
| 20260502184548 | 70 | 109 | 2.0 | 6.0 | 0.00 | 0.06 | 0.02 | 35 | 1016.2 |
| 20260502183052 | 69 | 90 | 2.0 | 7.0 | 0.00 | 0.06 | 0.02 | 39 | 1016.4 |
| 20260502181544 | 69 | 105 | 2.0 | 9.0 | 0.00 | 0.06 | 0.02 | 41 | 1016.5 |
| 20260502163045 | 62 | 0 | 3.0 | 13.0 | 0.00 | 0.06 | 0.02 | 52 | 1016.9 |
| 20260502161539 | 62 | 228 | 1.0 | 9.0 | 0.00 | 0.06 | 0.02 | 56 | 1016.8 |
| 20260502151538 | 60 | 117 | 1.0 | 4.0 | 0.00 | 0.06 | 0.02 | 60 | 1016.5 |
| 20260502123039 | 53 | 0 | 1.0 | 4.0 | 0.00 | 0.06 | 0.02 | 77 | 1014.9 |
| 20260502121546 | 52 | 0 | 0.0 | 0.0 | 0.00 | 0.06 | 0.02 | 82 | 1014.9 |
| 20260502114532 | 52 | 0 | 0.0 | 1.0 | 0.00 | 0.06 | 0.02 | 84 | 1014.2 |
| 20260502113038 | 51 | 0 | 0.0 | 1.0 | 0.00 | 0.06 | 0.02 | 83 | 1014.1 |
| 20260502111538 | 51 | 0 | 0.0 | 0.0 | 0.00 | 0.06 | 0.02 | 88 | 1014.2 |
| 20260502110036 | 51 | 0 | 0.0 | 0.0 | 0.00 | 0.06 | 0.02 | 89 | 1014.3 |
| 20260502104534 | 51 | 0 | 0.0 | 0.0 | 0.00 | 0.06 | 0.02 | 89 | 1014.0 |
| 20260502103042 | 51 | 0 | 0.0 | 0.0 | 0.00 | 0.06 | 0.02 | 90 | 1013.9 |
| 20260502101545 | 51 | 0 | 0.0 | 0.0 | 0.00 | 0.06 | 0.02 | 92 | 1013.6 |
| 20260502091532 | 52 | 0 | 0.0 | 0.0 | 0.01 | 0.06 | 0.02 | 91 | 1014.2 |
| 20260502070034 | 56 | 0 | 0.0 | 0.0 | 0.01 | 0.05 | 0.01 | 95 | 1014.2 |
| 20260502064534 | 56 | 0 | 0.0 | 0.0 | 0.01 | 0.05 | 0.01 | 95 | 1014.5 |
| 20260502063041 | 56 | 0 | 0.0 | 0.0 | 0.00 | 0.04 | 0.00 | 95 | 1014.7 |
| 20260502061541 | 56 | 0 | 0.0 | 0.0 | 0.00 | 0.04 | 0.00 | 95 | 1014.4 |
| 20260502060039 | 56 | 0 | 0.0 | 0.0 | 0.00 | 0.04 | 0.00 | 95 | 1014.6 |
| 20260502054541 | 56 | 0 | 0.0 | 0.0 | 0.00 | 0.04 | 0.00 | 95 | 1014.5 |
| 20260502053037 | 56 | 0 | 0.0 | 0.0 | 0.00 | 0.04 | 0.00 | 95 | 1014.2 |
| 20260502051540 | 56 | 0 | 0.0 | 0.0 | 0.00 | 0.04 | 0.00 | 95 | 1014.4 |
| 20260502050039 | 56 | 0 | 0.0 | 0.0 | 0.00 | 0.04 | 0.00 | 95 | 1014.4 |
| 20260502044538 | 56 | 0 | 0.0 | 0.0 | 0.00 | 0.04 | 0.04 | 95 | 1014.4 |
| 20260502043036 | 56 | 0 | 0.0 | 0.0 | 0.00 | 0.04 | 0.04 | 94 | 1014.2 |
| 20260502041601 | 56 | 0 | 0.0 | 0.0 | 0.00 | 0.04 | 0.04 | 94 | 1014.2 |
| 20260502040033 | 56 | 0 | 0.0 | 0.0 | 0.00 | 0.04 | 0.04 | 94 | 1014.1 |
| 20260502034542 | 56 | 0 | 0.0 | 0.0 | 0.00 | 0.04 | 0.04 | 94 | 1013.9 |
| 20260502033053 | 56 | 0 | 0.0 | 0.0 | 0.00 | 0.04 | 0.04 | 94 | 1014.2 |
| 20260502031538 | 56 | 0 | 0.0 | 0.0 | 0.00 | 0.04 | 0.04 | 93 | 1014.5 |
| 20260502030037 | 57 | 0 | 0.0 | 0.0 | 0.00 | 0.04 | 0.04 | 93 | 1014.7 |
| 20260502024537 | 56 | 0 | 0.0 | 0.0 | 0.01 | 0.04 | 0.04 | 92 | 1014.5 |
| 20260502023032 | 56 | 0 | 0.0 | 0.0 | 0.02 | 0.04 | 0.04 | 92 | 1014.6 |
| 20260502021532 | 56 | 0 | 0.0 | 0.0 | 0.03 | 0.04 | 0.04 | 91 | 1015.2 |
| 20260502020038 | 57 | 0 | 0.0 | 0.0 | 0.04 | 0.04 | 0.04 | 90 | 1015.1 |
| 20260502014538 | 57 | 0 | 0.0 | 0.0 | 0.03 | 0.03 | 0.03 | 88 | 1015.0 |
| 20260502013035 | 58 | 0 | 0.0 | 0.0 | 0.02 | 0.02 | 0.02 | 86 | 1015.0 |
| 20260502011533 | 58 | 0 | 0.0 | 0.0 | 0.01 | 0.01 | 0.01 | 84 | 1014.9 |